TimeEST,TemperatureF,Dew PointF,Humidity,Sea Level PressureIn,VisibilityMPH,Wind Direction,Wind SpeedMPH,Gust SpeedMPH,PrecipitationIn,Events,Conditions,WindDirDegrees,DateUTC
12:53 AM,73.9,72.0,93,30.05,10.0,ENE,10.4,-,N/A,,Overcast,70,2011-11-18 05:53:00
1:53 AM,75.0,72.0,90,30.04,10.0,NE,8.1,-,0.00,,Overcast,40,2011-11-18 06:53:00
2:26 AM,75.2,71.6,89,30.05,10.0,ENE,12.7,20.7,0.01,Rain,Light Rain,70,2011-11-18 07:26:00
2:53 AM,75.0,72.0,90,30.04,10.0,NE,18.4,26.5,0.11,Rain,Light Rain,50,2011-11-18 07:53:00
3:53 AM,75.0,69.1,82,30.05,10.0,NE,19.6,27.6,0.00,,Overcast,50,2011-11-18 08:53:00
4:26 AM,75.2,68.0,78,30.06,10.0,NE,17.3,26.5,N/A,,Overcast,40,2011-11-18 09:26:00
4:53 AM,75.0,66.9,76,30.06,10.0,NE,20.7,25.3,N/A,,Overcast,40,2011-11-18 09:53:00
5:53 AM,75.0,66.9,76,30.08,10.0,NE,16.1,28.8,N/A,,Overcast,40,2011-11-18 10:53:00
6:53 AM,75.0,66.9,76,30.10,10.0,NE,17.3,-,N/A,,Mostly Cloudy,50,2011-11-18 11:53:00
7:53 AM,77.0,66.9,71,30.11,10.0,ENE,17.3,21.9,N/A,,Overcast,60,2011-11-18 12:53:00
8:24 AM,73.4,71.6,94,30.12,3.0,NE,17.3,24.2,0.00,Rain,Rain,40,2011-11-18 13:24:00
8:44 AM,71.6,71.6,100,30.13,1.5,ENE,12.7,20.7,0.06,Rain,Heavy Rain,70,2011-11-18 13:44:00
8:53 AM,73.0,72.0,96,30.13,1.8,ENE,16.1,23.0,0.07,Rain,Rain,60,2011-11-18 13:53:00
9:05 AM,73.4,71.6,94,30.14,4.0,NE,17.3,25.3,0.02,Rain,Light Rain,50,2011-11-18 14:05:00
9:14 AM,73.4,71.6,94,30.15,1.0,NE,13.8,23.0,0.03,Rain,Light Rain,40,2011-11-18 14:14:00
9:35 AM,71.6,71.6,100,30.15,1.5,NE,17.3,-,N/A,Rain-Thunderstorm,Heavy Thunderstorms and Rain,50,2011-11-18 14:35:00
9:47 AM,71.6,71.6,100,30.15,1.5,NE,13.8,29.9,0.10,Rain-Thunderstorm,Thunderstorms and Rain,40,2011-11-18 14:47:00
9:53 AM,72.0,71.1,97,30.15,1.5,NE,18.4,26.5,0.10,Rain-Thunderstorm,Thunderstorms and Rain,50,2011-11-18 14:53:00
10:09 AM,71.6,71.6,100,30.15,3.0,NE,20.7,27.6,0.02,Rain,Light Rain,50,2011-11-18 15:09:00
10:19 AM,71.6,71.6,100,30.15,1.5,NE,18.4,28.8,0.03,Rain,Rain,50,2011-11-18 15:19:00
10:31 AM,71.6,71.6,100,30.15,3.0,NE,16.1,28.8,0.06,Rain,Rain,50,2011-11-18 15:31:00
10:53 AM,73.0,71.1,93,30.15,5.0,ENE,20.7,27.6,0.06,Rain,Light Rain,60,2011-11-18 15:53:00
11:25 AM,73.4,69.8,88,30.15,10.0,ENE,18.4,29.9,0.00,,Overcast,70,2011-11-18 16:25:00
11:53 AM,75.0,70.0,84,30.15,10.0,ENE,16.1,26.5,0.00,,Overcast,60,2011-11-18 16:53:00
12:53 PM,75.0,69.1,82,30.12,10.0,NE,18.4,25.3,N/A,,Overcast,50,2011-11-18 17:53:00
1:53 PM,75.0,68.0,79,30.11,10.0,ENE,13.8,25.3,N/A,,Overcast,70,2011-11-18 18:53:00
2:53 PM,75.0,68.0,79,30.11,10.0,ENE,18.4,26.5,N/A,,Overcast,60,2011-11-18 19:53:00
3:53 PM,73.9,69.1,85,30.12,10.0,NE,12.7,21.9,0.00,,Overcast,50,2011-11-18 20:53:00
4:53 PM,73.9,69.1,85,30.12,10.0,ENE,19.6,27.6,N/A,,Overcast,60,2011-11-18 21:53:00
5:53 PM,73.0,69.1,87,30.14,7.0,ENE,13.8,25.3,0.00,Rain,Light Rain,70,2011-11-18 22:53:00
6:53 PM,72.0,70.0,93,30.15,4.0,East,17.3,24.2,0.03,Rain,Light Rain,80,2011-11-18 23:53:00
7:53 PM,73.0,70.0,90,30.16,10.0,ENE,15.0,21.9,0.01,,Overcast,60,2011-11-19 00:53:00
8:53 PM,73.9,70.0,87,30.17,10.0,ENE,17.3,24.2,N/A,,Overcast,70,2011-11-19 01:53:00
9:53 PM,73.0,70.0,90,30.17,7.0,ENE,15.0,25.3,0.03,Rain,Light Rain,70,2011-11-19 02:53:00
10:53 PM,73.9,70.0,87,30.17,10.0,ENE,15.0,-,0.02,,Overcast,70,2011-11-19 03:53:00
11:53 PM,73.0,70.0,90,30.16,10.0,ENE,16.1,26.5,0.00,,Overcast,70,2011-11-19 04:53:00